Location: Newark
(25.0000°N, 73.5000°E)
Time: 00:35:16
(UTC+00:00)

X-37B - Visible Passes

Search period start: 17 June 2021 00:00
Search period end: 27 June 2021 00:00
Orbit: 386 x 389 km, 45.0° (Epoch: 10 June)

Date Brightness Start Highest point End Pass type
(mag) Time Alt. Az. Time Alt. Az. Time Alt. Az.
19 Jun 4.1 23:05:03 10° NNE 23:05:54 11° NNE 23:06:46 10° NE visible
20 Jun 2.0 23:41:25 10° NW 23:44:26 42° NE 23:47:28 10° ESE visible
21 Jun 2.1 14:35:43 10° S 14:37:56 18° SE 14:40:09 10° E visible
21 Jun 3.1 16:11:38 10° W 16:13:09 21° WNW 16:13:09 21° WNW visible
21 Jun 3.4 22:43:34 10° NNW 22:46:00 20° NE 22:48:26 10° E visible
22 Jun 0.9 15:12:52 10° WSW 15:16:01 67° NW 15:19:10 10° NE visible
22 Jun 4.1 21:46:31 10° NNE 21:47:26 11° NNE 21:48:22 10° NE visible
22 Jun 0.4 23:21:11 10° NW 23:24:20 71° SW 23:27:28 10° SE visible
23 Jun 3.9 15:52:37 10° WNW 15:54:27 14° NNW 15:56:18 10° N visible
23 Jun 1.7 22:25:09 34° N 22:25:59 43° NE 22:29:01 10° ESE visible
24 Jun 2.9 14:53:10 10° W 14:55:57 27° NW 14:58:44 10° NNE visible
24 Jun 2.8 23:06:13 14° S 23:06:13 14° S 23:06:50 10° SSE visible
26 Jun 3.8 14:34:10 10° WNW 14:35:59 14° NNW 14:37:48 10° N visible
